Time,TemperatureF,DewpointF,PressureIn,WindDirection,WindDirectionDegrees,WindSpeedMPH,WindSpeedGustMPH,Humidity,HourlyPrecipIn,Conditions,Clouds,dailyrainin,SoftwareType,DateUTC
2013-02-03 00:11:00,26.6,25.0,30.01,SSE,163,0.0,-999.0,93,-99.99,,,0.00,weatherlink.com 1.10,2013-02-03 05:11:00,
2013-02-03 00:26:00,26.4,25.0,30.01,SSE,163,0.0,-999.0,93,-99.99,,,0.00,weatherlink.com 1.10,2013-02-03 05:26:00,
2013-02-03 00:41:00,25.8,24.0,30.00,SSE,163,0.0,-999.0,93,-99.99,,,0.00,weatherlink.com 1.10,2013-02-03 05:41:00,
2013-02-03 00:56:00,25.3,24.0,30.00,SSE,163,0.0,-999.0,94,-99.99,,,0.00,weatherlink.com 1.10,2013-02-03 05:56:00,
2013-02-03 01:11:00,24.7,23.0,29.99,SSE,163,0.0,-999.0,94,-99.99,,,0.00,weatherlink.com 1.10,2013-02-03 06:11:00,
2013-02-03 01:26:00,24.4,23.0,30.00,SSE,163,0.0,-999.0,94,-99.99,,,0.00,weatherlink.com 1.10,2013-02-03 06:26:00,
2013-02-03 01:41:00,23.8,22.0,29.99,SSE,163,0.0,-999.0,94,-99.99,,,0.00,weatherlink.com 1.10,2013-02-03 06:41:00,
2013-02-03 01:56:00,23.6,22.0,29.98,SSE,163,0.0,-999.0,94,-99.99,,,0.00,weatherlink.com 1.10,2013-02-03 06:56:00,
2013-02-03 02:11:00,23.3,22.0,29.98,SSE,163,0.0,-999.0,94,-99.99,,,0.00,weatherlink.com 1.10,2013-02-03 07:11:00,
2013-02-03 02:26:00,23.2,22.0,29.97,SSE,163,0.0,-999.0,94,-99.99,,,0.00,weatherlink.com 1.10,2013-02-03 07:26:00,
2013-02-03 02:41:00,23.2,22.0,29.97,SSE,163,0.0,-999.0,95,-99.99,,,0.00,weatherlink.com 1.10,2013-02-03 07:41:00,
2013-02-03 02:56:00,23.3,22.0,29.96,SSE,163,0.0,-999.0,95,-99.99,,,0.00,weatherlink.com 1.10,2013-02-03 07:56:00,
2013-02-03 03:11:00,23.2,22.0,29.96,SSE,163,0.0,-999.0,95,-99.99,,,0.00,weatherlink.com 1.10,2013-02-03 08:11:00,
2013-02-03 03:26:00,23.0,22.0,29.95,SSE,163,0.0,-999.0,95,-99.99,,,0.00,weatherlink.com 1.10,2013-02-03 08:26:00,
2013-02-03 03:41:00,22.9,22.0,29.94,SSE,163,0.0,-999.0,95,-99.99,,,0.00,weatherlink.com 1.10,2013-02-03 08:41:00,
2013-02-03 03:56:00,22.5,21.0,29.93,SSE,163,0.0,-999.0,95,-99.99,,,0.00,weatherlink.com 1.10,2013-02-03 08:56:00,
2013-02-03 04:11:00,21.9,21.0,29.93,SSE,163,0.0,-999.0,95,-99.99,,,0.00,weatherlink.com 1.10,2013-02-03 09:11:00,
2013-02-03 04:26:00,21.4,20.0,29.93,SSE,163,0.0,-999.0,95,-99.99,,,0.00,weatherlink.com 1.10,2013-02-03 09:26:00,
2013-02-03 04:41:00,21.1,20.0,29.93,SSE,163,0.0,-999.0,95,-99.99,,,0.00,weatherlink.com 1.10,2013-02-03 09:41:00,
2013-02-03 04:56:00,21.3,20.0,29.93,SSE,163,0.0,-999.0,95,-99.99,,,0.00,weatherlink.com 1.10,2013-02-03 09:56:00,
2013-02-03 05:11:00,21.4,20.0,29.93,SSE,163,0.0,-999.0,95,-99.99,,,0.00,weatherlink.com 1.10,2013-02-03 10:11:00,
2013-02-03 05:26:00,21.6,20.0,29.93,SSE,163,0.0,-999.0,95,-99.99,,,0.00,weatherlink.com 1.10,2013-02-03 10:26:00,
2013-02-03 05:41:00,21.6,20.0,29.93,SSE,163,0.0,-999.0,95,-99.99,,,0.00,weatherlink.com 1.10,2013-02-03 10:41:00,
2013-02-03 05:56:00,21.1,20.0,29.93,SSE,163,0.0,-999.0,95,-99.99,,,0.00,weatherlink.com 1.10,2013-02-03 10:56:00,
2013-02-03 06:11:00,21.1,20.0,29.93,SSE,163,0.0,-999.0,95,-99.99,,,0.00,weatherlink.com 1.10,2013-02-03 11:11:00,
2013-02-03 06:26:00,20.8,20.0,29.93,SSE,163,0.0,-999.0,95,-99.99,,,0.00,weatherlink.com 1.10,2013-02-03 11:26:00,
2013-02-03 06:41:00,21.0,20.0,29.93,SSE,163,0.0,-999.0,95,-99.99,,,0.00,weatherlink.com 1.10,2013-02-03 11:41:00,
2013-02-03 06:56:00,21.0,20.0,29.94,SSE,163,0.0,-999.0,95,-99.99,,,0.00,weatherlink.com 1.10,2013-02-03 11:56:00,
2013-02-03 07:11:00,20.8,20.0,29.94,SSE,163,0.0,-999.0,95,-99.99,,,0.00,weatherlink.com 1.10,2013-02-03 12:11:00,
2013-02-03 07:26:00,20.6,19.0,29.94,SSE,163,0.0,-999.0,95,-99.99,,,0.00,weatherlink.com 1.10,2013-02-03 12:26:00,
2013-02-03 07:41:00,21.6,20.0,29.95,SSE,163,0.0,-999.0,95,-99.99,,,0.00,weatherlink.com 1.10,2013-02-03 12:41:00,
2013-02-03 07:56:00,22.1,21.0,29.95,SSE,163,0.0,-999.0,95,-99.99,,,0.00,weatherlink.com 1.10,2013-02-03 12:56:00,
2013-02-03 08:11:00,22.9,22.0,29.95,SSE,163,0.0,-999.0,95,-99.99,,,0.00,weatherlink.com 1.10,2013-02-03 13:11:00,
2013-02-03 08:26:00,23.6,22.0,29.95,SSE,163,0.0,-999.0,95,-99.99,,,0.00,weatherlink.com 1.10,2013-02-03 13:26:00,
2013-02-03 08:41:00,24.4,23.0,29.95,SSE,163,0.0,-999.0,95,-99.99,,,0.00,weatherlink.com 1.10,2013-02-03 13:41:00,
2013-02-03 08:56:00,25.3,24.0,29.95,SSE,163,0.0,-999.0,96,-99.99,,,0.00,weatherlink.com 1.10,2013-02-03 13:56:00,
2013-02-03 09:11:00,26.1,25.0,29.95,SSE,163,0.0,-999.0,96,-99.99,,,0.00,weatherlink.com 1.10,2013-02-03 14:11:00,
2013-02-03 09:26:00,27.2,26.0,29.95,SSE,163,0.0,-999.0,96,-99.99,,,0.00,weatherlink.com 1.10,2013-02-03 14:26:00,
2013-02-03 09:41:00,27.8,27.0,29.95,SSE,163,0.0,-999.0,96,-99.99,,,0.00,weatherlink.com 1.10,2013-02-03 14:41:00,
2013-02-03 09:56:00,28.4,27.0,29.94,SSE,163,0.0,-999.0,96,-99.99,,,0.00,weatherlink.com 1.10,2013-02-03 14:56:00,
2013-02-03 10:11:00,28.8,28.0,29.94,ENE,77,0.0,-999.0,95,-99.99,,,0.01,weatherlink.com 1.10,2013-02-03 15:11:00,
2013-02-03 10:26:00,29.1,28.0,29.93,SE,124,0.0,-999.0,94,-99.99,,,0.01,weatherlink.com 1.10,2013-02-03 15:26:00,
2013-02-03 10:41:00,29.8,27.0,29.93,SE,143,0.0,-999.0,90,-99.99,,,0.01,weatherlink.com 1.10,2013-02-03 15:41:00,
2013-02-03 10:56:00,30.3,27.0,29.92,SSE,152,0.0,-999.0,87,-99.99,,,0.01,weatherlink.com 1.10,2013-02-03 15:56:00,
2013-02-03 11:11:00,30.6,27.0,29.92,SE,146,0.0,-999.0,85,-99.99,,,0.02,weatherlink.com 1.10,2013-02-03 16:11:00,
2013-02-03 11:26:00,30.7,26.0,29.92,SE,144,2.0,-999.0,82,-99.99,,,0.02,weatherlink.com 1.10,2013-02-03 16:26:00,
2013-02-03 11:41:00,31.3,26.0,29.91,SE,145,3.0,-999.0,79,-99.99,,,0.02,weatherlink.com 1.10,2013-02-03 16:41:00,
2013-02-03 11:56:00,31.0,25.0,29.90,SE,145,0.0,-999.0,78,-99.99,,,0.02,weatherlink.com 1.10,2013-02-03 16:56:00,
2013-02-03 12:11:00,31.9,25.0,29.89,SE,145,0.0,-999.0,75,-99.99,,,0.02,weatherlink.com 1.10,2013-02-03 17:11:00,
2013-02-03 12:26:00,32.9,25.0,29.89,South,184,1.0,-999.0,74,-99.99,,,0.02,weatherlink.com 1.10,2013-02-03 17:26:00,
2013-02-03 12:41:00,32.9,25.0,29.88,SW,226,0.0,-999.0,72,-99.99,,,0.02,weatherlink.com 1.10,2013-02-03 17:41:00,
2013-02-03 12:56:00,33.7,25.0,29.87,SW,235,0.0,-999.0,69,-99.99,,,0.02,weatherlink.com 1.10,2013-02-03 17:56:00,
2013-02-03 13:11:00,33.5,25.0,29.86,SW,221,0.0,-999.0,71,-99.99,,,0.02,weatherlink.com 1.10,2013-02-03 18:11:00,
2013-02-03 13:26:00,33.8,25.0,29.86,WNW,296,0.0,-999.0,69,-99.99,,,0.02,weatherlink.com 1.10,2013-02-03 18:26:00,
2013-02-03 13:41:00,33.8,24.0,29.86,North,359,0.0,-999.0,68,-99.99,,,0.02,weatherlink.com 1.10,2013-02-03 18:41:00,
2013-02-03 13:56:00,33.8,24.0,29.85,West,271,0.0,-999.0,68,-99.99,,,0.02,weatherlink.com 1.10,2013-02-03 18:56:00,
2013-02-03 14:11:00,33.7,25.0,29.84,West,276,0.0,-999.0,69,-99.99,,,0.02,weatherlink.com 1.10,2013-02-03 19:11:00,
2013-02-03 14:26:00,33.4,25.0,29.84,West,270,0.0,-999.0,71,-99.99,,,0.02,weatherlink.com 1.10,2013-02-03 19:26:00,
2013-02-03 14:41:00,32.8,25.0,29.84,SSE,153,0.0,-999.0,73,-99.99,,,0.02,weatherlink.com 1.10,2013-02-03 19:41:00,
2013-02-03 14:56:00,32.4,26.0,29.84,SE,143,2.0,-999.0,77,-99.99,,,0.02,weatherlink.com 1.10,2013-02-03 19:56:00,
2013-02-03 15:11:00,31.6,26.0,29.85,SE,143,0.0,-999.0,81,-99.99,,,0.02,weatherlink.com 1.10,2013-02-03 20:11:00,
2013-02-03 15:26:00,31.3,27.0,29.85,SE,136,0.0,-999.0,84,-99.99,,,0.02,weatherlink.com 1.10,2013-02-03 20:26:00,
2013-02-03 15:41:00,31.0,27.0,29.85,SSE,155,0.0,-999.0,86,-99.99,,,0.02,weatherlink.com 1.10,2013-02-03 20:41:00,
2013-02-03 15:56:00,31.0,28.0,29.86,SSE,155,0.0,-999.0,87,-99.99,,,0.02,weatherlink.com 1.10,2013-02-03 20:56:00,
2013-02-03 16:11:00,31.3,28.0,29.86,SSE,155,0.0,-999.0,88,-99.99,,,0.02,weatherlink.com 1.10,2013-02-03 21:11:00,
2013-02-03 16:26:00,31.6,29.0,29.86,SSE,155,0.0,-999.0,88,-99.99,,,0.02,weatherlink.com 1.10,2013-02-03 21:26:00,
2013-02-03 16:41:00,31.3,28.0,29.85,SSE,155,0.0,-999.0,88,-99.99,,,0.02,weatherlink.com 1.10,2013-02-03 21:41:00,
2013-02-03 16:56:00,31.5,28.0,29.84,SSE,155,0.0,-999.0,88,-99.99,,,0.02,weatherlink.com 1.10,2013-02-03 21:56:00,
2013-02-03 17:11:00,31.3,29.0,29.84,SSE,155,0.0,-999.0,89,-99.99,,,0.02,weatherlink.com 1.10,2013-02-03 22:11:00,
2013-02-03 17:26:00,31.2,28.0,29.84,SSE,155,0.0,-999.0,89,-99.99,,,0.02,weatherlink.com 1.10,2013-02-03 22:26:00,
2013-02-03 17:41:00,30.9,28.0,29.85,SSE,155,0.0,-999.0,89,-99.99,,,0.02,weatherlink.com 1.10,2013-02-03 22:41:00,
2013-02-03 17:56:00,30.6,28.0,29.85,SSE,155,0.0,-999.0,90,-99.99,,,0.02,weatherlink.com 1.10,2013-02-03 22:56:00,
2013-02-03 18:11:00,30.6,28.0,29.85,SSE,155,0.0,-999.0,90,-99.99,,,0.02,weatherlink.com 1.10,2013-02-03 23:11:00,
2013-02-03 18:26:00,30.1,28.0,29.85,SSE,155,0.0,-999.0,90,-99.99,,,0.02,weatherlink.com 1.10,2013-02-03 23:26:00,
2013-02-03 18:41:00,30.1,28.0,29.86,SSE,155,0.0,-999.0,91,-99.99,,,0.02,weatherlink.com 1.10,2013-02-03 23:41:00,
2013-02-03 18:56:00,29.8,28.0,29.86,SSE,155,0.0,-999.0,91,-99.99,,,0.02,weatherlink.com 1.10,2013-02-03 23:56:00,
2013-02-03 19:11:00,29.1,27.0,29.86,SSE,155,0.0,-999.0,91,-99.99,,,0.02,weatherlink.com 1.10,2013-02-04 00:11:00,
2013-02-03 19:26:00,28.7,27.0,29.86,SSE,155,0.0,-999.0,92,-99.99,,,0.02,weatherlink.com 1.10,2013-02-04 00:26:00,
2013-02-03 19:41:00,28.4,26.0,29.87,SSE,155,0.0,-999.0,92,-99.99,,,0.02,weatherlink.com 1.10,2013-02-04 00:41:00,
2013-02-03 19:56:00,27.9,26.0,29.87,SSE,155,0.0,-999.0,93,-99.99,,,0.02,weatherlink.com 1.10,2013-02-04 00:56:00,
2013-02-03 20:11:00,28.5,27.0,29.87,SSE,155,0.0,-999.0,93,-99.99,,,0.02,weatherlink.com 1.10,2013-02-04 01:11:00,
2013-02-03 20:26:00,29.4,28.0,29.87,SSE,155,0.0,-999.0,93,-99.99,,,0.02,weatherlink.com 1.10,2013-02-04 01:26:00,
2013-02-03 20:41:00,30.1,28.0,29.88,SSE,155,1.0,-999.0,93,-99.99,,,0.02,weatherlink.com 1.10,2013-02-04 01:41:00,
2013-02-03 20:56:00,30.6,29.0,29.88,WSW,250,0.0,-999.0,92,-99.99,,,0.02,weatherlink.com 1.10,2013-02-04 01:56:00,
2013-02-03 21:11:00,30.7,28.0,29.89,WSW,255,0.0,-999.0,91,-99.99,,,0.02,weatherlink.com 1.10,2013-02-04 02:11:00,
2013-02-03 21:26:00,31.0,29.0,29.89,West,264,0.0,-999.0,90,-99.99,,,0.02,weatherlink.com 1.10,2013-02-04 02:26:00,
2013-02-03 21:41:00,31.3,29.0,29.89,West,272,3.0,-999.0,89,-99.99,,,0.02,weatherlink.com 1.10,2013-02-04 02:41:00,
2013-02-03 21:56:00,31.3,28.0,29.90,WSW,244,0.0,-999.0,88,-99.99,,,0.02,weatherlink.com 1.10,2013-02-04 02:56:00,
2013-02-03 22:11:00,31.5,28.0,29.90,WSW,240,2.0,-999.0,87,-99.99,,,0.02,weatherlink.com 1.10,2013-02-04 03:11:00,
2013-02-03 22:26:00,31.9,28.0,29.90,West,273,6.0,-999.0,85,-99.99,,,0.02,weatherlink.com 1.10,2013-02-04 03:26:00,
2013-02-03 22:41:00,32.2,27.0,29.91,WNW,290,4.0,-999.0,80,-99.99,,,0.02,weatherlink.com 1.10,2013-02-04 03:41:00,
2013-02-03 22:56:00,32.7,25.0,29.92,NW,314,6.0,-999.0,74,-99.99,,,0.02,weatherlink.com 1.10,2013-02-04 03:56:00,
2013-02-03 23:11:00,32.5,24.0,29.92,NNW,337,1.0,-999.0,71,-99.99,,,0.02,weatherlink.com 1.10,2013-02-04 04:11:00,
2013-02-03 23:26:00,32.1,23.0,29.92,NW,304,4.0,-999.0,68,-99.99,,,0.02,weatherlink.com 1.10,2013-02-04 04:26:00,
2013-02-03 23:41:00,31.8,21.0,29.93,WNW,302,11.0,-999.0,65,-99.99,,,0.02,weatherlink.com 1.10,2013-02-04 04:41:00,
2013-02-03 23:56:00,31.6,20.0,29.93,West,271,4.0,-999.0,62,-99.99,,,0.02,weatherlink.com 1.10,2013-02-04 04:56:00,